"Period start","avg(HW err(1)/warn(2) (#))","avg(Visibility (m))","avg(Weather code (#))","avg(Precip intensity (mm/h))","min(HW err(1)/warn(2) (#))","max(HW err(1)/warn(2) (#))","std(HW err(1)/warn(2) (#))","med(HW err(1)/warn(2) (#))","min(Visibility (m))","max(Visibility (m))","std(Visibility (m))","med(Visibility (m))","min(Weather code (#))","max(Weather code (#))","std(Weather code (#))","med(Weather code (#))","min(Precip intensity (mm/h))","max(Precip intensity (mm/h))","std(Precip intensity (mm/h))","med(Precip intensity (mm/h))"
2016-06-21 00:00:00,2,41424,0,0.00,2,2,0,2,22066,50000,9546,44947,0,0,0,0,0.00,0.00,0.00,0.00
2016-06-21 00:10:00,2,43405,0,0.00,2,2,0,2,31552,50000,6123,42330,0,0,0,0,0.00,0.00,0.00,0.00
2016-06-21 00:20:00,2,44475,0,0.00,2,2,0,2,37835,50000,5058,45313,0,0,0,0,0.00,0.00,0.00,0.00
2016-06-21 00:30:00,2,37174,0,0.00,2,2,0,2,22764,50000,9947,37066,0,0,0,0,0.00,0.00,0.00,0.00
2016-06-21 00:40:00,2,39256,0,0.00,2,2,0,2,18157,50000,9614,40422,0,0,0,0,0.00,0.00,0.00,0.00
2016-06-21 00:50:00,2,44552,0,0.00,2,2,0,2,34814,50000,6034,47503,0,0,0,0,0.00,0.00,0.00,0.00
2016-06-21 01:00:00,2,37753,0,0.00,2,2,0,2,24564,50000,9346,34934,0,0,0,0,0.00,0.00,0.00,0.00
2016-06-21 01:10:00,2,38509,0,0.00,2,2,0,2,29973,50000,6837,36468,0,0,0,0,0.00,0.00,0.00,0.00
2016-06-21 01:20:00,2,45935,0,0.00,0,2,1,2,32236,50000,6250,49484,0,0,0,0,0.00,0.00,0.00,0.00
2016-06-21 01:30:00,0,44406,0,0.00,0,0,0,0,34987,50000,5568,46602,0,0,0,0,0.00,0.00,0.00,0.00
2016-06-21 01:40:00,0,41578,0,0.00,0,0,0,0,25706,50000,7541,43350,0,0,0,0,0.00,0.00,0.00,0.00
2016-06-21 01:50:00,0,48537,0,0.00,0,0,0,0,42173,50000,2663,49920,0,0,0,0,0.00,0.00,0.00,0.00
2016-06-21 02:00:00,0,42275,0,0.00,0,0,0,0,20836,50000,9492,47418,0,0,0,0,0.00,0.00,0.00,0.00
2016-06-21 02:10:00,0,39912,0,0.00,0,0,0,0,29038,48359,6391,40906,0,0,0,0,0.00,0.00,0.00,0.00
2016-06-21 02:20:00,0,42470,0,0.00,0,0,0,0,30087,50000,6777,42290,0,0,0,0,0.00,0.00,0.00,0.00
2016-06-21 02:30:00,0,44962,0,0.00,0,0,0,0,39825,50000,3703,45012,0,0,0,0,0.00,0.00,0.00,0.00
2016-06-21 02:40:00,0,47929,0,0.00,0,0,0,0,37058,50000,3829,49618,0,0,0,0,0.00,0.00,0.00,0.00
2016-06-21 02:50:00,0,46463,0,0.00,0,0,0,0,32593,50000,5539,49468,0,0,0,0,0.00,0.00,0.00,0.00
2016-06-21 03:00:00,0,48107,0,0.00,0,0,0,0,40193,50000,2962,49698,0,0,0,0,0.00,0.00,0.00,0.00
2016-06-21 03:10:00,0,46262,0,0.00,0,0,0,0,39803,50000,3727,46282,0,0,0,0,0.00,0.00,0.00,0.00
2016-06-21 03:20:00,0,41814,0,0.00,0,0,0,0,25365,50000,8713,45376,0,0,0,0,0.00,0.00,0.00,0.00
2016-06-21 03:30:00,0,45903,0,0.00,0,0,0,0,37415,50000,4539,47706,0,0,0,0,0.00,0.00,0.00,0.00
2016-06-21 03:40:00,0,48302,0,0.00,0,0,0,0,45416,50000,1823,49120,0,0,0,0,0.00,0.00,0.00,0.00
2016-06-21 03:50:00,0,48454,0,0.00,0,0,0,0,43917,50000,1809,48834,0,0,0,0,0.00,0.00,0.00,0.00
2016-06-21 04:00:00,0,45411,0,0.00,0,0,0,0,35358,50000,4231,45005,0,0,0,0,0.00,0.00,0.00,0.00
2016-06-21 04:10:00,0,48959,0,0.00,0,0,0,0,46805,50000,1245,49541,0,0,0,0,0.00,0.00,0.00,0.00
2016-06-21 04:20:00,0,44954,0,0.00,0,0,0,0,37444,50000,4542,45806,0,0,0,0,0.00,0.00,0.00,0.00
2016-06-21 04:30:00,0,49354,0,0.00,0,0,0,0,46574,50000,1121,50000,0,0,0,0,0.00,0.00,0.00,0.00
2016-06-21 04:40:00,0,46462,0,0.00,0,0,0,0,35125,50000,4019,47312,0,0,0,0,0.00,0.00,0.00,0.00
2016-06-21 04:50:00,0,49208,0,0.00,0,0,0,0,45828,50000,1587,50000,0,0,0,0,0.00,0.00,0.00,0.00
2016-06-21 05:00:00,0,46730,0,0.00,0,0,0,0,39331,50000,3692,48472,0,0,0,0,0.00,0.00,0.00,0.00
2016-06-21 05:10:00,0,46817,0,0.00,0,0,0,0,39145,50000,4041,48958,0,0,0,0,0.00,0.00,0.00,0.00
2016-06-21 05:20:00,0,49192,0,0.00,0,0,0,0,45298,50000,1462,50000,0,0,0,0,0.00,0.00,0.00,0.00
2016-06-21 05:30:00,0,47942,0,0.00,0,0,0,0,42985,50000,2750,50000,0,0,0,0,0.00,0.00,0.00,0.00
2016-06-21 05:40:00,0,47715,0,0.00,0,0,0,0,39873,50000,3290,50000,0,0,0,0,0.00,0.00,0.00,0.00
2016-06-21 05:50:00,0,48081,0,0.00,0,0,0,0,45170,50000,1800,48208,0,0,0,0,0.00,0.00,0.00,0.00
2016-06-21 06:00:00,0,49286,0,0.00,0,0,0,0,42855,50000,2144,50000,0,0,0,0,0.00,0.00,0.00,0.00
2016-06-21 06:10:00,0,49049,0,0.00,0,0,0,0,45497,50000,1317,49400,0,0,0,0,0.00,0.00,0.00,0.00
2016-06-21 06:20:00,0,48644,0,0.00,0,0,0,0,41244,50000,2677,50000,0,0,0,0,0.00,0.00,0.00,0.00
2016-06-21 06:30:00,0,45252,0,0.00,0,0,0,0,34734,50000,5375,47478,0,0,0,0,0.00,0.00,0.00,0.00
2016-06-21 06:40:00,0,48150,0,0.00,0,0,0,0,43626,50000,2439,50000,0,0,0,0,0.00,0.00,0.00,0.00
2016-06-21 06:50:00,0,48670,0,0.00,0,0,0,0,46195,50000,1427,49132,0,0,0,0,0.00,0.00,0.00,0.00
2016-06-21 07:00:00,0,47576,0,0.00,0,0,0,0,40064,50000,3498,49832,0,0,0,0,0.00,0.00,0.00,0.00
2016-06-21 07:10:00,0,47852,0,0.00,0,0,0,0,39714,50000,3032,48970,0,0,0,0,0.00,0.00,0.00,0.00
2016-06-21 07:20:00,0,48283,0,0.00,0,0,0,0,43409,50000,2512,49671,0,0,0,0,0.00,0.00,0.00,0.00
2016-06-21 07:30:00,0,44390,0,0.00,0,0,0,0,36093,50000,5568,45254,0,0,0,0,0.00,0.00,0.00,0.00
2016-06-21 07:40:00,0,48477,0,0.00,0,0,0,0,43966,50000,2397,50000,0,0,0,0,0.00,0.00,0.00,0.00
2016-06-21 07:50:00,0,49799,0,0.00,0,0,0,0,48193,50000,539,50000,0,0,0,0,0.00,0.00,0.00,0.00
2016-06-21 08:00:00,0,49682,0,0.00,0,0,0,0,47939,50000,670,50000,0,0,0,0,0.00,0.00,0.00,0.00
2016-06-21 08:10:00,0,49716,0,0.00,0,0,0,0,47160,50000,852,50000,0,0,0,0,0.00,0.00,0.00,0.00
2016-06-21 08:20:00,0,49168,0,0.00,0,0,0,0,46474,50000,1223,50000,0,0,0,0,0.00,0.00,0.00,0.00
2016-06-21 08:30:00,0,50000,0,0.00,0,0,0,0,50000,50000,0,50000,0,0,0,0,0.00,0.00,0.00,0.00
2016-06-21 08:40:00,0,49934,0,0.00,0,0,0,0,49455,50000,163,50000,0,0,0,0,0.00,0.00,0.00,0.00
2016-06-21 08:50:00,0,47868,0,0.00,0,0,0,0,42735,50000,2644,49751,0,0,0,0,0.00,0.00,0.00,0.00
2016-06-21 09:00:00,0,49587,0,0.00,0,0,0,0,46558,50000,1030,50000,0,0,0,0,0.00,0.00,0.00,0.00
2016-06-21 09:10:00,0,49737,0,0.00,0,0,0,0,48011,50000,606,50000,0,0,0,0,0.00,0.00,0.00,0.00
2016-06-21 09:20:00,0,46072,0,0.00,0,0,0,0,38900,50000,3639,46486,0,0,0,0,0.00,0.00,0.00,0.00
2016-06-21 09:30:00,0,49779,0,0.00,0,0,0,0,48669,50000,411,50000,0,0,0,0,0.00,0.00,0.00,0.00
2016-06-21 09:40:00,0,48494,0,0.00,0,0,0,0,43459,50000,2041,49484,0,0,0,0,0.00,0.00,0.00,0.00
2016-06-21 09:50:00,0,49811,0,0.00,0,0,0,0,48939,50000,382,50000,0,0,0,0,0.00,0.00,0.00,0.00
2016-06-21 10:00:00,0,50000,0,0.00,0,0,0,0,50000,50000,0,50000,0,0,0,0,0.00,0.00,0.00,0.00
2016-06-21 10:10:00,0,49816,0,0.00,0,0,0,0,48732,50000,400,50000,0,0,0,0,0.00,0.00,0.00,0.00
2016-06-21 10:20:00,0,49042,0,0.00,0,0,0,0,44546,50000,1939,50000,0,0,0,0,0.00,0.00,0.00,0.00
2016-06-21 10:30:00,0,49886,0,0.00,0,0,0,0,48865,50000,340,50000,0,0,0,0,0.00,0.00,0.00,0.00
2016-06-21 10:40:00,0,49918,0,0.00,0,0,0,0,49181,50000,246,50000,0,0,0,0,0.00,0.00,0.00,0.00
2016-06-21 10:50:00,0,49915,0,0.00,0,0,0,0,49151,50000,255,50000,0,0,0,0,0.00,0.00,0.00,0.00
2016-06-21 11:00:00,0,49838,0,0.00,0,0,0,0,48381,50000,486,50000,0,0,0,0,0.00,0.00,0.00,0.00
2016-06-21 11:10:00,0,49977,0,0.00,0,0,0,0,49772,50000,68,50000,0,0,0,0,0.00,0.00,0.00,0.00
2016-06-21 11:20:00,0,50000,0,0.00,0,0,0,0,50000,50000,0,50000,0,0,0,0,0.00,0.00,0.00,0.00
2016-06-21 11:30:00,0,49183,0,0.00,0,0,0,0,46567,50000,1307,50000,0,0,0,0,0.00,0.00,0.00,0.00
2016-06-21 11:40:00,0,45083,0,0.00,0,0,0,0,38644,50000,4220,45734,0,0,0,0,0.00,0.00,0.00,0.00
2016-06-21 11:50:00,0,48264,0,0.00,0,0,0,0,44460,50000,1959,49174,0,0,0,0,0.00,0.00,0.00,0.00
2016-06-21 12:00:00,0,48627,0,0.00,0,0,0,0,42577,50000,2758,50000,0,0,0,0,0.00,0.00,0.00,0.00
2016-06-21 12:10:00,0,48838,0,0.00,0,0,0,0,44585,50000,2070,50000,0,0,0,0,0.00,0.00,0.00,0.00
2016-06-21 12:20:00,0,50000,0,0.00,0,0,0,0,50000,50000,0,50000,0,0,0,0,0.00,0.00,0.00,0.00
2016-06-21 12:30:00,0,49552,0,0.00,0,0,0,0,46995,50000,959,50000,0,0,0,0,0.00,0.00,0.00,0.00
2016-06-21 12:40:00,0,49913,0,0.00,0,0,0,0,49128,50000,262,50000,0,0,0,0,0.00,0.00,0.00,0.00
2016-06-21 12:50:00,0,49901,0,0.00,0,0,0,0,49014,50000,296,50000,0,0,0,0,0.00,0.00,0.00,0.00
2016-06-21 13:00:00,0,50000,0,0.00,0,0,0,0,50000,50000,0,50000,0,0,0,0,0.00,0.00,0.00,0.00
2016-06-21 13:10:00,0,50000,0,0.00,0,0,0,0,50000,50000,0,50000,0,0,0,0,0.00,0.00,0.00,0.00
2016-06-21 13:20:00,0,49808,0,0.00,0,0,0,0,48085,50000,574,50000,0,0,0,0,0.00,0.00,0.00,0.00
2016-06-21 13:30:00,0,49694,0,0.00,0,0,0,0,46945,50000,916,50000,0,0,0,0,0.00,0.00,0.00,0.00
2016-06-21 13:40:00,0,50000,0,0.00,0,0,0,0,50000,50000,0,50000,0,0,0,0,0.00,0.00,0.00,0.00
2016-06-21 13:50:00,0,50000,0,0.00,0,0,0,0,50000,50000,0,50000,0,0,0,0,0.00,0.00,0.00,0.00
2016-06-21 14:00:00,0,49985,0,0.00,0,0,0,0,49850,50000,45,50000,0,0,0,0,0.00,0.00,0.00,0.00
2016-06-21 14:10:00,0,49997,0,0.00,0,0,0,0,49973,50000,8,50000,0,0,0,0,0.00,0.00,0.00,0.00
2016-06-21 14:20:00,0,50000,0,0.00,0,0,0,0,50000,50000,0,50000,0,0,0,0,0.00,0.00,0.00,0.00
2016-06-21 14:30:00,0,50000,0,0.00,0,0,0,0,50000,50000,0,50000,0,0,0,0,0.00,0.00,0.00,0.00
2016-06-21 14:40:00,0,50000,0,0.00,0,0,0,0,50000,50000,0,50000,0,0,0,0,0.00,0.00,0.00,0.00
2016-06-21 14:50:00,0,50000,0,0.00,0,0,0,0,50000,50000,0,50000,0,0,0,0,0.00,0.00,0.00,0.00
2016-06-21 15:00:00,0,50000,0,0.00,0,0,0,0,50000,50000,0,50000,0,0,0,0,0.00,0.00,0.00,0.00
2016-06-21 15:10:00,0,49945,0,0.00,0,0,0,0,49447,50000,166,50000,0,0,0,0,0.00,0.00,0.00,0.00
2016-06-21 15:20:00,0,50000,0,0.00,0,0,0,0,50000,50000,0,50000,0,0,0,0,0.00,0.00,0.00,0.00
2016-06-21 15:30:00,0,50000,0,0.00,0,0,0,0,50000,50000,0,50000,0,0,0,0,0.00,0.00,0.00,0.00
2016-06-21 15:40:00,0,50000,0,0.00,0,0,0,0,50000,50000,0,50000,0,0,0,0,0.00,0.00,0.00,0.00
2016-06-21 15:50:00,0,50000,0,0.00,0,0,0,0,50000,50000,0,50000,0,0,0,0,0.00,0.00,0.00,0.00
2016-06-21 16:00:00,0,49961,0,0.00,0,0,0,0,49613,50000,116,50000,0,0,0,0,0.00,0.00,0.00,0.00
2016-06-21 16:10:00,0,50000,0,0.00,0,0,0,0,50000,50000,0,50000,0,0,0,0,0.00,0.00,0.00,0.00
2016-06-21 16:20:00,0,50000,0,0.00,0,0,0,0,50000,50000,0,50000,0,0,0,0,0.00,0.00,0.00,0.00
2016-06-21 16:30:00,0,50000,0,0.00,0,0,0,0,50000,50000,0,50000,0,0,0,0,0.00,0.00,0.00,0.00
2016-06-21 16:40:00,0,50000,0,0.00,0,0,0,0,50000,50000,0,50000,0,0,0,0,0.00,0.00,0.00,0.00
2016-06-21 16:50:00,0,50000,0,0.00,0,0,0,0,50000,50000,0,50000,0,0,0,0,0.00,0.00,0.00,0.00
2016-06-21 17:00:00,0,50000,0,0.00,0,0,0,0,50000,50000,0,50000,0,0,0,0,0.00,0.00,0.00,0.00
2016-06-21 17:10:00,0,50000,0,0.00,0,0,0,0,50000,50000,0,50000,0,0,0,0,0.00,0.00,0.00,0.00
2016-06-21 17:20:00,0,49973,0,0.00,0,0,0,0,49734,50000,80,50000,0,0,0,0,0.00,0.00,0.00,0.00
2016-06-21 17:30:00,0,50000,0,0.00,0,0,0,0,50000,50000,0,50000,0,0,0,0,0.00,0.00,0.00,0.00
2016-06-21 17:40:00,0,49908,0,0.00,0,0,0,0,49080,50000,276,50000,0,0,0,0,0.00,0.00,0.00,0.00
2016-06-21 17:50:00,0,50000,0,0.00,0,0,0,0,50000,50000,0,50000,0,0,0,0,0.00,0.00,0.00,0.00
2016-06-21 18:00:00,0,50000,0,0.00,0,0,0,0,50000,50000,0,50000,0,0,0,0,0.00,0.00,0.00,0.00
2016-06-21 18:10:00,0,50000,0,0.00,0,0,0,0,50000,50000,0,50000,0,0,0,0,0.00,0.00,0.00,0.00
2016-06-21 18:20:00,0,50000,0,0.00,0,0,0,0,50000,50000,0,50000,0,0,0,0,0.00,0.00,0.00,0.00
2016-06-21 18:30:00,0,50000,0,0.00,0,0,0,0,50000,50000,0,50000,0,0,0,0,0.00,0.00,0.00,0.00
2016-06-21 18:40:00,0,50000,0,0.00,0,0,0,0,50000,50000,0,50000,0,0,0,0,0.00,0.00,0.00,0.00
2016-06-21 18:50:00,0,49564,0,0.00,0,0,0,0,45641,50000,1308,50000,0,0,0,0,0.00,0.00,0.00,0.00
2016-06-21 19:00:00,0,50000,0,0.00,0,0,0,0,50000,50000,0,50000,0,0,0,0,0.00,0.00,0.00,0.00
2016-06-21 19:10:00,0,50000,0,0.00,0,0,0,0,50000,50000,0,50000,0,0,0,0,0.00,0.00,0.00,0.00
2016-06-21 19:20:00,0,49816,0,0.00,0,0,0,0,48164,50000,551,50000,0,0,0,0,0.00,0.00,0.00,0.00
2016-06-21 19:30:00,0,50000,0,0.00,0,0,0,0,50000,50000,0,50000,0,0,0,0,0.00,0.00,0.00,0.00
2016-06-21 19:40:00,0,50000,0,0.00,0,0,0,0,50000,50000,0,50000,0,0,0,0,0.00,0.00,0.00,0.00
2016-06-21 19:50:00,0,50000,0,0.00,0,0,0,0,50000,50000,0,50000,0,0,0,0,0.00,0.00,0.00,0.00
2016-06-21 20:00:00,0,49936,0,0.00,0,0,0,0,49357,50000,193,50000,0,0,0,0,0.00,0.00,0.00,0.00
2016-06-21 20:10:00,0,50000,0,0.00,0,0,0,0,50000,50000,0,50000,0,0,0,0,0.00,0.00,0.00,0.00
2016-06-21 20:20:00,0,49961,0,0.00,0,0,0,0,49611,50000,117,50000,0,0,0,0,0.00,0.00,0.00,0.00
2016-06-21 20:30:00,0,50000,0,0.00,0,0,0,0,50000,50000,0,50000,0,0,0,0,0.00,0.00,0.00,0.00
2016-06-21 20:40:00,0,49807,0,0.00,0,0,0,0,48637,50000,425,50000,0,0,0,0,0.00,0.00,0.00,0.00
2016-06-21 20:50:00,0,49794,0,0.00,0,0,0,0,48164,50000,547,50000,0,0,0,0,0.00,0.00,0.00,0.00
2016-06-21 21:00:00,0,49399,0,0.00,0,0,0,0,46900,50000,987,50000,0,0,0,0,0.00,0.00,0.00,0.00
2016-06-21 21:10:00,0,50000,0,0.00,0,0,0,0,50000,50000,0,50000,0,0,0,0,0.00,0.00,0.00,0.00
2016-06-21 21:20:00,0,49833,0,0.00,0,0,0,0,48544,50000,434,50000,0,0,0,0,0.00,0.00,0.00,0.00
2016-06-21 21:30:00,0,48670,0,0.00,0,0,0,0,43619,50000,2277,50000,0,0,0,0,0.00,0.00,0.00,0.00
2016-06-21 21:40:00,0,44462,0,0.00,0,0,0,0,38366,50000,3947,43818,0,0,0,0,0.00,0.00,0.00,0.00
2016-06-21 21:50:00,0,24228,0,0.00,0,0,0,0,13025,45251,11788,18695,0,0,0,0,0.00,0.00,0.00,0.00
2016-06-21 22:00:00,0,22754,49,0.68,0,0,0,0,15459,32427,5475,23618,0,61,17,52,0.00,1.05,0.27,0.73
2016-06-21 22:10:00,0,27893,52,0.61,0,0,0,0,19251,34895,4512,29579,51,52,0,52,0.20,1.20,0.31,0.60
2016-06-21 22:20:00,0,32938,55,0.65,0,0,0,0,23777,43046,6817,30882,51,61,5,52,0.20,2.70,0.71,0.43
2016-06-21 22:30:00,0,42246,49,0.30,0,0,0,0,24085,50000,7587,44328,41,52,4,51,0.05,0.70,0.17,0.28
2016-06-21 22:40:00,0,42124,51,0.36,0,0,0,0,32801,50000,5450,41878,51,52,0,51,0.10,0.55,0.13,0.40
2016-06-21 22:50:00,0,45129,53,0.23,0,0,0,0,35281,50000,4124,45153,51,61,4,51,0.05,0.40,0.12,0.23
2016-06-21 23:00:00,0,45174,51,0.29,0,0,0,0,34058,50000,5722,48414,51,51,0,51,0.15,0.65,0.15,0.25
2016-06-21 23:10:00,0,39231,55,0.47,0,0,0,0,33083,44394,3420,38940,51,61,5,51,0.20,1.65,0.42,0.33
2016-06-21 23:20:00,0,34183,51,0.36,0,0,0,0,25554,46642,6529,35397,51,51,0,51,0.20,0.80,0.17,0.30
2016-06-21 23:30:00,0,41554,51,0.49,0,0,0,0,28780,50000,6004,42474,51,52,0,51,0.25,1.30,0.30,0.38
2016-06-21 23:40:00,0,43094,56,0.92,0,0,0,0,33163,50000,5387,43672,51,61,5,56,0.35,2.00,0.47,0.78
2016-06-21 23:50:00,0,40309,57,0.74,0,0,0,0,31619,50000,5503,39662,51,61,5,61,0.35,1.45,0.32,0.75
